Location: Biberach+an+der+Riss
(48.0937°N, 9.7888°E)
Time: 22:33:16
(UTC+02:00)

ISS - Visible Passes

Search period start: 25 September 2020 00:00
Search period end: 05 October 2020 00:00
Orbit: 419 x 420 km, 51.6° (Epoch: 26 September)

Date Brightness Start Highest point End Pass type
(mag) Time Alt. Az. Time Alt. Az. Time Alt. Az.
25 Sep -2.9 20:58:11 10° WNW 21:01:26 43° N 21:02:08 37° NE visible
26 Sep -2.9 20:10:41 10° W 20:13:57 45° N 20:16:31 15° ENE visible
26 Sep -1.6 21:47:46 10° WNW 21:49:28 27° NW 21:49:28 27° NW visible
27 Sep -3.3 21:00:21 10° WNW 21:03:39 49° N 21:03:50 48° NNE visible
28 Sep -3.0 20:12:53 10° WNW 20:16:09 44° N 20:18:11 20° ENE visible
28 Sep -1.3 21:49:46 10° WNW 21:51:09 22° WNW 21:51:09 22° WNW visible
29 Sep -3.6 21:02:21 10° WNW 21:05:30 70° NNW 21:05:30 70° NNW visible
30 Sep -3.5 20:14:55 10° WNW 20:18:16 58° NNE 20:19:53 27° E visible
30 Sep -0.9 21:51:51 10° WNW 21:52:51 17° W 21:52:51 17° W visible
01 Oct -3.2 19:27:28 10° WNW 19:30:45 49° N 19:34:04 10° E visible
01 Oct -3.1 21:04:19 10° WNW 21:07:15 52° WSW 21:07:15 52° WSW visible
02 Oct -3.8 20:16:50 10° WNW 20:20:14 82° SSW 20:21:42 31° ESE visible
02 Oct -0.5 21:54:21 10° W 21:54:40 11° W 21:54:40 11° W visible
03 Oct -3.7 19:29:23 10° WNW 19:32:46 74° NNE 19:36:08 10° ESE visible
03 Oct -2.0 21:06:29 10° W 21:09:10 25° SW 21:09:10 25° SW visible
04 Oct -2.6 20:18:50 10° WNW 20:21:59 38° SW 20:23:45 21° SSE visible
